Location: Pontbriand
(46.1542°N, 71.2542°W)
Time: 11:32:10
(UTC+00:00)

Envisat - Pass Details

Date: 03 December 2021
Orbit: 764 x 766 km, 98.2° (Epoch: 20 January)

Event Time Altitude Azimuth Distance (km) Brightness Sun altitude
Rises 11:08:39 0° 2° (N) 3,245 6.0 -10.3°
Reaches altitude 10° 11:11:24 10° 347° (NNW) 2,314 5.2 -9.8°
Maximum altitude 11:15:15 22° 298° (WNW) 1,626 4.1 -9.2°
Drops below altitude 10° 11:19:04 10° 249° (WSW) 2,301 5.1 -8.6°
Sets 11:21:49 0° 235° (SW) 3,223 5.9 -8.1°
